Home   Weather   Ahvaz   Past weeks

Flag for Iran Past Weather in Ahvaz, Iran — Yesterday and Last 2 Weeks

Now
75 °F

Clear.


Feels Like: 76 °F
Forecast: 75 / 107 °F
Wind: 2 mph from Northwest

Location: Ahwaz

Current Time: Sep 26, 2016 at 7:16:41 AM

Latest Report: Sep 26, 2016 at 6:30 AM


Visibility: 4 mi

Pressure: 29.71 "Hg

Humidity: 16%

Dew Point: 27 °F

Location of AhvazLocation

Past Weather in Ahvaz — Graph

°F

Ahvaz Temperature Yesterday

Maximum temperature yesterday: 100 °F (at 1:57 PM)
Minimum temperature yesterday: 73 °F (at 6:30 AM)
Average temperature yesterday: 88 °F

High & Low Weather Summary for the Past Weeks

 TemperatureHumidityPressure
High113 °F (Sep 12, 3:56 PM)47% (Sep 11, 6:30 AM)29.74 "Hg (Sep 11, 6:30 AM)
Low70 °F (Sep 22, 6:30 AM)6% (Sep 20, 5:30 PM)29.53 "Hg (Sep 12, 3:56 PM)
Average93 °F19%29.65 "Hg
* Reported Sep 11 6:30 AM — Sep 26 5:30 AM, Ahvaz, Weather by CustomWeather, © 2016

Note: Actual official high and low records may vary slightly from our data, if they occured in-between our weather recording intervals... More about our weather records

Advertising

Ahvaz Weather History for the Previous 24 Hours

Scroll right to see more
 ConditionsComfort  
Time TempWeatherWind HumidityBarometerVisibility
5:30 AM
Mon, Sep 26
77 °FClear.5 mph17%29.68 "Hg10 mi
4:30 AM75 °FClear.2 mph19%29.68 "Hg10 mi
3:30 AM79 °FClear.5 mph16%29.68 "Hg10 mi
2:30 AM81 °FClear.7 mph15%29.68 "Hg5 mi
1:30 AM82 °FClear.7 mph14%29.68 "Hg5 mi
12:30 AM84 °FClear.5 mph13%29.71 "Hg5 mi
11:59 PM
Sun, Sep 25
84 °FClear.7 mph12%29.68 "Hg5 mi
11:30 PM84 °FClear.7 mph13%29.68 "Hg5 mi
11:00 PM86 °FClear.7 mph12%29.71 "Hg5 mi
10:58 PM86 °FClear.7 mph12%29.71 "Hg5 mi
10:30 PM86 °FClear.5 mph13%29.71 "Hg5 mi
10:00 PM88 °FClear.7 mph12%29.68 "Hg5 mi
9:30 PM88 °FClear.7 mph13%29.68 "Hg5 mi
9:00 PM88 °FClear.7 mph13%29.68 "Hg5 mi
8:56 PM88 °FClear.7 mph13%29.68 "Hg5 mi
8:30 PM90 °FClear.9 mph12%29.68 "Hg5 mi
8:00 PM90 °FClear.7 mph12%29.68 "Hg5 mi
7:56 PM90 °FClear.7 mph12%29.68 "Hg5 mi
7:30 PM91 °FClear.7 mph13%29.68 "Hg5 mi
6:56 PM91 °FClear.7 mph14%29.65 "Hg4 mi
6:30 PM93 °FClear.7 mph13%29.65 "Hg4 mi
5:55 PM95 °FClear.7 mph9%29.65 "Hg5 mi
5:30 PM97 °FSunny.7 mph10%29.65 "Hg10 mi
4:55 PM100 °FSunny.5 mph16%29.65 "Hg10 mi
4:30 PM100 °FSunny.5 mph13%29.65 "Hg10 mi
3:51 PM100 °FSunny.7 mph13%29.65 "Hg10 mi
3:30 PM100 °FSunny.7 mph15%29.65 "Hg10 mi
2:52 PM100 °FSunny.7 mph14%29.65 "Hg10 mi
2:30 PM100 °FSunny.7 mph14%29.65 "Hg10 mi
1:57 PM100 °FSunny.7 mph15%29.68 "Hg10 mi
1:30 PM99 °FSunny.7 mph18%29.68 "Hg10 mi
12:58 PM99 °FClear.7 mph18%29.68 "Hg4 mi
12:30 PM95 °FClear.12 mph20%29.68 "Hg4 mi
11:54 AM93 °FClear.9 mph21%29.71 "Hg5 mi
11:30 AM91 °FSunny.7 mph23%29.71 "Hg10 mi
10:55 AM88 °FSunny.9 mph27%29.71 "Hg10 mi
10:30 AM86 °FSunny.7 mph29%29.71 "Hg10 mi
9:52 AM84 °FSunny.7 mph31%29.71 "Hg10 mi
9:30 AM82 °FSunny.7 mph28%29.71 "Hg10 mi
8:52 AM81 °FSunny.7 mph32%29.68 "Hg10 mi
8:30 AM79 °FSunny.7 mph34%29.68 "Hg10 mi
8:00 AM77 °FSunny.5 mph34%29.68 "Hg10 mi
7:30 AM75 °FSunny.9 mph36%29.68 "Hg10 mi
Weather by CustomWeather, © 2016

See weather overviewHow to use our weather pages